Location: *
(43.0966°S, 86.1973°E)
Time: 18:12:05
(UTC+00:00)

Daily predictions for brighter satellites

Satellite Brightness Start Highest point End
(mag) Time Altitude Azimuth Time Altitude Azimuth Time Altitude Azimuth
SKYMED 3 4.5 12:04:25 10° NNE 12:08:35 68° ESE 12:12:48 10° S
CZ-2D R/B 3.2 12:06:25 10° SSE 12:10:10 89° ENE 12:13:50 10° NNW
Cosmos 1862 Rocket 3.7 12:07:03 10° N 12:11:26 86° W 12:15:56 10° S
USA 215 3.8 12:07:13 10° E 12:13:19 42° SSE 12:19:28 10° SW
Spot 4 Rocket 4.1 12:10:53 10° SSE 12:16:07 88° E 12:21:16 10° NNW
Cosmos 1733 Rocket 3.5 12:13:53 10° SSW 12:18:20 69° W 12:22:44 10° N
SL-08 R/B 4.1 12:13:57 10° N 12:18:51 63° WNW 12:23:50 10° SSW
NOSS 3-1 (A) 4.1 12:14:09 10° SW 12:20:16 55° WNW 12:25:16 10° NNE
Cosmos 1709 Rocket 4.2 12:14:09 10° NNE 12:20:20 54° E 12:26:34 10° SSE
Cosmos 1441 Rocket 3.3 12:17:58 10° SSW 12:21:39 75° W 12:25:18 10° N
Cosmos 1302 Rocket 4.5 12:16:26 10° SSW 12:21:45 70° WNW 12:27:01 10° N
USA 229 DEB 3.6 12:19:48 10° SSW 12:26:27 64° SE 12:32:29 10° NE
USA 229 3.6 12:19:55 10° SSW 12:26:33 63° SE 12:32:35 10° NE
Okean 1-7 3.0 12:23:21 10° N 12:27:40 67° E 12:32:04 10° SSE
Helios 1B rocket 2.8 12:25:46 10° SSE 12:29:30 37° E 12:33:10 10° NNE
Meteor 1-31 Rocket 3.2 12:30:16 10° SSE 12:33:46 37° E 12:37:14 10° NNE
Cosmos 614 Rocket 4.4 12:31:42 10° NNW 12:36:54 68° WSW 12:42:07 10° SSE
Cosmos 1315 Rocket 4.0 12:34:02 10° NE 12:37:02 21° E 12:40:05 10° SE
Meteor 1-16 Rocket 4.4 12:31:27 10° S 12:37:31 85° E 12:43:27 10° N
SeaSat 1 2.7 12:33:57 10° SE 12:38:46 47° ENE 12:43:30 10° N
SAR-Lupe-2 4.4 12:37:38 10° SE 12:40:53 29° E 12:44:06 10° NNE
DELTA 2 DEB (DPAF) 4.1 12:38:44 10° NNE 12:42:54 54° ESE 12:47:08 10° S
Cosmos 1697 Rocket 4.2 12:39:51 10° S 12:43:34 17° SE 12:45:39 15° ESE
Cosmos 1400 Rocket 3.5 12:40:20 10° NNW 12:44:17 58° WSW 12:48:15 10° S
CZ-2C R/B 2.5 12:41:03 10° SSE 12:44:39 66° ENE 12:48:13 10° N
Okean 2 3.3 12:41:53 10° N 12:45:54 88° ENE 12:50:00 10° S
Cosmos 44 3.4 12:41:23 10° SSW 12:46:02 55° SE 12:50:57 10° NE
Cosmos 1782 Rocket 3.7 12:52:00 10° S 12:56:19 49° ESE 13:00:33 10° NNE
Cosmos 482 Debris 3.6 12:55:10 10° NNW 12:56:31 30° NNE 12:56:31 30° NNE
SMAP 3.5 12:53:48 10° S 12:58:31 66° WSW 13:03:09 10° NNW
BREEZE-M DEB (TANK) 3.7 12:57:29 10° SW 12:59:26 23° S 13:00:29 19° SE
Cosmos 1346 Rocket 2.7 12:55:41 10° S 12:59:41 88° E 13:03:36 10° N
Cosmos 2074 Rocket 4.4 12:54:36 10° NNE 13:00:14 37° E 13:05:55 10° SSE
ISS -2.0 12:58:10 10° N 13:00:17 18° NE 13:00:17 18° NE
CZ-4C R/B 3.9 13:02:04 28° E 13:02:32 29° ESE 13:05:48 10° S
Cosmos 1269 Rocket 4.3 12:57:48 10° NNW 13:03:05 71° WSW 13:08:28 10° SSE
Cosmos 1908 Rocket 3.9 12:58:45 10° SSW 13:03:12 70° W 13:07:32 10° N
ATLAS 3B R/B 4.5 12:58:39 10° SW 13:03:55 29° WNW 13:09:15 10° N
AQUARIUS 4.4 13:00:05 10° S 13:04:38 73° WSW 13:09:06 10° NNW
Cosmos 2285 Rocket 4.0 12:58:37 10° N 13:05:02 76° ENE 13:11:33 10° SSE
CZ-4B R/B 3.9 13:17:09 10° SSE 13:22:14 43° E 13:27:12 10° N
Delta 2 Rocket 4.5 13:19:11 10° NW 13:22:26 27° N 13:23:05 25° NNE
Cosmos 1300 Rocket 3.4 13:19:19 10° S 13:23:42 79° E 13:28:03 10° NNE
IGS 5A 3.4 13:19:38 10° SSE 13:23:46 60° E 13:27:51 10° N
Cosmos 1140 Rocket 3.3 13:23:32 10° NNW 13:28:42 79° ENE 13:33:55 10° SSE
Cosmos 2098 Rocket 4.1 13:22:38 10° S 13:29:16 69° E 13:35:56 10° NNE
ATLAS CENTAUR R/B 4.4 13:26:23 10° SSW 13:30:16 21° SSE 13:32:50 18° SE
Cosmos 2242 Rocket 3.5 13:26:09 10° N 13:30:42 84° E 13:35:21 10° S
Cosmos 1656 3.6 13:25:25 10° SSW 13:31:12 80° ESE 13:35:00 22° NNE
Cosmos 1174 4.5 13:29:27 10° NNW 13:31:11 29° NNW 13:31:11 29° NNW
Cosmos 1953 4.1 13:31:10 10° SSW 13:34:43 32° W 13:38:12 10° NNW
Cosmos 1455 3.3 13:31:54 10° SSW 13:35:19 41° W 13:38:42 10° NNW
Lacrosse 5 2.6 13:30:41 10° SW 13:35:26 37° SSE 13:36:06 35° SE
Cosmos 407 Rocket 3.3 13:34:16 10° N 13:39:21 66° ENE 13:43:26 16° SSE
Cosmos 1833 Rocket 2.5 13:47:50 10° NNW 13:53:27 74° ENE 13:55:55 35° SE
USA 215 3.3 13:53:02 35° NE 13:56:02 76° NW 14:02:40 10° SW
Cosmos 1763 Rocket 4.1 13:52:13 10° S 13:56:05 40° SSE 13:56:05 40° SSE
NOAA 6 4.5 13:56:19 10° S 14:01:30 61° WSW 14:06:37 10° NNW
ADEOS Rocket 3.1 13:58:50 10° SSE 14:06:05 86° ENE 14:12:30 10° NNW
Lacrosse 4 Rocket 4.1 14:04:24 10° S 14:04:43 11° S 14:04:43 11° S
Cosmos 2360 4.1 14:01:57 10° SSW 14:07:46 90° ESE 14:08:25 72° NNE
SeaSat 1 4.4 14:11:49 10° S 14:15:58 27° SW 14:20:06 10° WNW
Meteor 2-5 Rocket 3.9 14:10:40 10° NNW 14:16:37 77° W 14:22:34 10° S
Cosmos 1980 Rocket 3.4 14:11:34 10° SSW 14:14:54 29° SSE 14:14:54 29° SSE
Cosmos 2251 Rocket 4.0 14:12:45 10° NNW 14:18:04 61° WSW 14:23:28 10° SSE
Cosmos 2154 Rocket 4.2 14:13:54 10° NNW 14:20:09 70° W 14:26:31 10° S
Cosmos 1697 Rocket 2.9 14:22:36 10° SSW 14:27:24 65° SSW 14:27:24 65° SSW
NOSS 3-3 (A) 4.5 14:22:30 10° NNW 14:31:17 75° ENE 14:32:06 70° ESE
Meteor 1-24 Rocket 4.4 14:31:42 10° NNW 14:37:26 53° WSW 14:43:02 10° S
NOSS 3-3 (C) 4.5 14:29:03 10° NNW 14:37:55 79° ENE 14:38:15 77° E
Lacrosse 5 4.2 15:13:36 10° SW 15:15:18 21° WSW 15:15:18 21° WSW
CZ-4C R/B 4.4 20:26:25 31° ESE 20:26:25 31° ESE 20:30:02 10° SE
CENTAUR R/B 4.0 20:53:00 40° E 20:53:00 40° E 20:58:06 10° SE
SL-16 R/B 4.2 20:53:35 10° SE 20:58:27 27° E 20:58:27 27° E
ARIANE 5 R/B 3.9 21:37:44 10° NE 21:42:26 37° ESE 21:47:08 10° S
CZ-2C R/B 4.3 21:37:23 10° S 21:39:54 28° S 21:39:54 28° S
ATLAS CENTAUR R/B 4.0 21:51:48 16° SSE 21:51:48 16° SSE 21:52:47 10° SSE
Lacrosse 5 rocket 4.3 21:52:49 12° NE 21:52:49 12° NE 21:53:05 10° NE
Timation 2 Rocket 4.3 21:50:59 55° ENE 21:51:06 55° ENE 21:56:58 10° SE
Cosmos 1655 Rocket 4.2 21:45:35 10° S 21:51:59 68° E 21:58:15 10° NNE
NOSS 3-2 (A) 4.2 21:58:48 56° NNW 22:00:58 81° ENE 22:08:56 10° SE
Cosmos 1844 Rocket 3.3 22:05:45 46° S 22:05:45 46° S 22:09:48 10° SSE
CZ-4C R/B 3.3 22:11:32 47° SW 22:11:34 47° SW 22:18:21 10° SSE
SeaSat 1 3.5 22:08:05 10° NE 22:12:44 42° SE 22:17:25 10° SSW
IRS-1C 4.0 22:20:10 10° NNE 22:25:32 85° WNW 22:30:59 10° SSW
SL-08 RB Rocket 4.3 22:22:59 10° NNE 22:27:27 56° ESE 22:31:55 10° S
Meteor 1-11 Rocket 3.6 22:31:48 66° W 22:31:53 66° WSW 22:37:39 10° S
Cosmos 489 Rocket 4.3 22:30:42 55° NW 22:32:05 76° WSW 22:38:23 10° SSE
SL-19 R/B 4.1 22:30:43 10° NNE 22:36:00 87° ESE 22:41:34 10° SSW
Cosmos 1975 3.8 22:35:17 15° NNE 22:38:21 47° E 22:42:14 10° SSE
GEOS 3 Rocket 4.5 22:34:08 10° SE 22:39:13 48° ENE 22:43:13 16° N
BREEZE-M R/B 4.3 22:40:58 31° SE 22:40:58 31° SE 22:43:14 10° E
CENTAUR R/B 3.1 22:40:11 42° W 22:42:01 50° SW 22:48:37 10° SSE
SL-16 R/B 2.7 22:36:37 10° S 22:42:38 51° WSW 22:43:31 47° W
Cosmos 1833 Rocket 3.9 22:40:20 10° SSW 22:45:44 42° ESE 22:51:05 10° NE
Meteor 2-9 Rocket 4.2 22:43:55 36° NNW 22:46:21 68° WSW 22:52:18 10° S
Cosmos 1340 4.3 22:43:38 10° NNE 22:46:45 31° E 22:49:54 10° SSE
Cosmos 1666 Rocket 3.9 22:42:57 10° N 22:47:17 64° E 22:51:40 10° SSE
Cosmos 2228 Rocket 3.2 22:44:42 10° S 22:49:22 81° E 22:53:56 10° N
IRS-P3 4.0 22:44:16 10° N 22:49:35 67° WNW 22:55:00 10° SSW
Cosmos 1707 Rocket 3.8 22:45:41 10° S 22:50:10 69° E 22:54:33 10° NNE
SL-14 R/B 3.6 22:50:43 10° S 22:54:36 64° E 22:58:28 10° NNE
FengYun 1-2 T 4.3 22:54:09 10° N 22:59:31 53° W 23:04:58 10° SSW
SL-8 R/B 3.6 23:00:17 47° W 23:01:36 71° NNW 23:06:24 10° NE
Cosmos 2278 Rocket 3.9 23:00:41 10° NNE 23:05:45 34° ENE 23:10:51 10° SE
SL-08 R/B 4.5 23:00:26 10° S 23:06:42 89° W 23:13:00 10° N
Cosmos 1553 Rocket 3.8 23:01:18 10° N 23:07:25 83° W 23:13:36 10° S
Nadezhda 2 Rocket 4.4 23:05:22 10° SSW 23:11:43 69° W 23:17:52 10° N
NOSS 3-2 (C) 4.1 23:05:15 14° NW 23:13:20 77° SW 23:21:12 10° SE
SJ-11-01 4.2 23:10:56 10° N 23:15:41 69° WNW 23:20:29 10° SSW
Okean 3 3.6 23:12:46 10° S 23:17:05 79° E 23:21:21 10° NNE
BREEZE-M DEB (TANK) 2.9 23:17:27 29° NW 23:19:08 74° NNE 23:21:36 10° ESE
ARIANE 5 R/B 3.3 23:17:06 10° NNW 23:21:31 29° W 23:25:58 10° SW
[s.n.70599] 2.1 23:22:12 73° WNW 23:22:22 80° N 23:24:56 10° E
CZ-2C R/B 4.5 23:19:08 10° NE 23:22:23 33° ESE 23:25:40 10° S
ARGOS 3.7 23:18:11 10° NNW 23:23:00 33° W 23:27:54 10° SSW
Cosmos 1633 Rocket 3.1 23:21:21 10° NNW 23:25:43 60° W 23:30:11 10° S
Cosmos 1356 Rocket 3.8 23:21:31 10° S 23:25:47 67° ESE 23:29:55 10° NNE
Lacrosse 5 rocket 3.4 23:27:50 14° NW 23:27:50 14° NW 23:29:15 10° NNW
ATLAS CENTAUR R/B 3.7 23:26:57 11° SW 23:27:17 11° SSW 23:28:17 10° SSW
Cosmos 1805 3.9 23:30:33 26° WNW 23:31:40 31° WSW 23:35:06 10° SSW
Spot 4 Rocket 4.1 23:27:40 10° N 23:32:44 58° W 23:37:53 10° SSW
Meteor 1-21 4.3 23:27:17 10° SSW 23:33:00 57° W 23:38:37 10° N
DELTA 2 R/B (1) 3.8 23:34:01 19° WNW 23:37:55 62° N 23:43:26 10° E
CORIOLIS 4.3 23:32:42 10° NNE 23:38:09 80° ESE 23:43:40 10° SSW
Cosmos 1470 4.1 23:36:48 10° NNE 23:40:24 42° E 23:44:02 10° SSE
DMSP B5D2-2 4.2 23:35:45 10° S 23:40:58 56° WSW 23:46:06 10° NNW
SL-24 DEB 4.3 23:37:19 10° N 23:41:58 83° E 23:46:38 10° S
SJ-7 4.2 23:39:27 10° N 23:43:22 73° WNW 23:47:22 10° SSW
Cosmos 1703 Rocket 3.9 23:41:16 10° S 23:45:47 71° E 23:50:10 10° NNE
PSLV R/B 3.9 23:43:55 10° NNW 23:47:49 39° W 23:51:46 10° SSW
Cosmos 1844 Rocket 4.4 23:47:26 12° WSW 23:49:07 13° SW 23:51:50 10° SSW
SeaSat 1 3.3 23:46:04 10° NNW 23:50:15 28° WNW 23:54:30 10° SW
Cosmos 1140 Rocket 3.6 23:48:42 10° SSW 23:53:45 53° WNW 23:58:44 10° N
NOSS 3-3 (A) 4.3 23:48:34 10° SW 23:54:14 38° WNW 23:59:12 10° N
